Regional Weather Roundup
Issued by NWS

Home | Current Version | Previous Version | Graphics & Text | Print | Product List | Glossary On
Versions: 1 2 3 4 5 6 7 8 9 10 11 12 13 14 15 16 17 18 19 20 21 22 23 24 25 26 27 28 29 30 31 32 33 34 35 36 37 38 39 40 41 42 43 44 45 46 47 48 49 50
000
ASUS43 KIND 010759
RWRIN

WEATHER ROUNDUP FOR INDIANA
NATIONAL WEATHER SERVICE INDIANAPOLIS IN
300 AM EST SUN MAR 01 2015

NOTE: "FAIR" INDICATES FEW OR NO CLOUDS BELOW 12,000 FEET WITH NO
SIGNIFICANT WEATHER AND/OR OBSTRUCTIONS TO VISIBILITY.

* - STATION DOES NOT REPORT WEATHER SUCH AS PRECIPITATION OR FOG.

+ - STATION NOT QUALITY CONTROLLED BY THE NATIONAL WEATHER SERVICE.
    USE DATA WITH CAUTION...ESPECIALLY DEWPOINT AND RELATIVE
    HUMIDITY OBSERVATIONS.

INZ001>003-010>013-019-020-010900-
NORTHWEST INDIANA

CITY           SKY/WX    TMP DP  RH WIND       PRES   REMARKS
GARY /AIRPORT/ CLOUDY    21  14  74 CALM      30.43F
MONTICELLO +   LGT SNOW  19  17  93 CALM      30.41F
VALPARAISO     NOT AVBL

$$

LMZ046-743>745-010900-
SOUTHERN LAKE MICHIGAN

STATION/POSITION TIME  TEMP WIND        PRES
                       AIR  DIR/SP/G
                 (UTC) (F)  (DEG/KT/KT) (MB)
MICHIGAN CITY    0700   18  130/  5/  7   N/A

$$

INZ004-005-014>016-021>024-010900-
NORTH CENTRAL INDIANA

CITY           SKY/WX    TMP DP  RH WIND       PRES   REMARKS
GOSHEN         CLOUDY    16  11  80 CALM      30.43F HAZE
SOUTH BEND     CLOUDY    17  12  80 SE6       30.42F WCI   9

$$

INZ006>009-017-018-025>027-010900-
NORTHEAST INDIANA

CITY           SKY/WX    TMP DP  RH WIND       PRES   REMARKS
ANGOLA *+      CLOUDY    14  10  85 CALM      30.42S
FORT WAYNE     LGT SNOW  17  14  88 E5        30.43F VSB 1   WCI  10

$$

INZ028-029-035-036-043>045-051>053-010900-
WEST CENTRAL INDIANA

CITY           SKY/WX    TMP DP  RH WIND       PRES   REMARKS
CRAWFORDSVL +  LGT SNOW  20  16  85 CALM      30.39F
GREENCASTLE +  LGT SNOW  23  19  86 SE3       30.39F
LAFAYETTE      LGT SNOW  20  19  96 NE3       30.42F VSB 3/4
TERRE HAUTE    LGT SNOW  25  23  92 CALM      30.40F VSB 1

$$

INZ030>032-037>040-046>048-054>057-064-065-010900-
CENTRAL INDIANA

CITY           SKY/WX    TMP DP  RH WIND       PRES   REMARKS
FRANKFORT +    LGT SNOW  21  21 100 CALM      30.41F VSB 1
GREENWOOD *+   CLOUDY    23  19  86 SE5       30.40F WCI  17
INDIANAPOLIS   LGT SNOW  23  20  88 SE3       30.38F VSB 3/4
-EAGLE CREEK   LGT SNOW  22  21  96 CALM      30.39F VSB 1
KOKOMO *+      CLOUDY    19  16  86 E5        30.40F VSB 1   WCI  13
MT COMFORT *+  CLOUDY    23 N/A N/A CALM      30.39F VSB 1
SHELBYVILLE    LGT SNOW  25  21  85 CALM      30.40F FOG

$$

INZ033-034-041-042-049-050-058-059-010900-
EAST CENTRAL INDIANA

CITY           SKY/WX    TMP DP  RH WIND       PRES   REMARKS
MUNCIE         LGT SNOW  22  19  89 CALM      30.39F VSB 1

$$

INZ060-061-067>069-081>083-085>088-010900-
SOUTHWEST INDIANA

CITY           SKY/WX    TMP DP  RH WIND       PRES   REMARKS
EVANSVILLE     CLOUDY    32  23  69 E3        30.42F
HUNTINGBURG *+ MOCLDY    30  23  74 E3        30.42S

$$

INZ062-063-066-070>080-084-089>092-010900-
SOUTH CENTRAL AND SOUTHEAST INDIANA

CITY           SKY/WX    TMP DP  RH WIND       PRES   REMARKS
BLOOMINGTON    LGT SNOW  26  24  92 SE5       30.38F FOG     WCI  20
SEYMOUR +      LGT SNOW  27  25  93 SE5       30.41F WCI  21

$$




USA.gov is the U.S. government's official web portal to all federal, state and local government web resources and services.